TGL26FG OEJN-KMIA

Flight info

Callsign TGL26FG
Flight time N/A
Altitude 34000
Route MIGDA L677 CVO L617 NABSI M872 METRU UL81 LORNO DCT AMREX DCT EKPAR DCT GIROV DCT NAXES DCT VEXUV DCT IDENU DCT OST DCT SOSIV DCT SOVAN/N0415F180 L995 MISPO/N0488F340 DCT PEPAG DCT TUNNO DCT KOTUN DCT AMAXA DCT VESAN DCT SOVAT L613 SANDY DCT OKSAW DCT TEWXI DCT LIPGO DCT PIKIL/M084F340 DCT 57N020W 5730N03000W 57N040W 56N050W DCT JANJO/N0483F340 N712B QUBIS/N0481F380 DCT BEEKN Q97 KALDA Q161 KOOKI DCT SKARP Y313 HOAGG BNFSH3
Aircraft A35K/H-SDE2E3GHIJ1J3J4J5LM1ORWXY/LB1D1

Departure

Time 2026-04-28 09:36
Airport King Abdulaziz International Airport (OEJN)

Arrival

Time N/A
Airport Miami International Airport (KMIA)
Time Latitude Longitude Altitude Speed Heading
2026-04-28 08:55 21.66073 39.16939 46 ft 0 kts 133°
2026-04-28 09:25 21.66076 39.16934 46 ft 4 kts 131°
2026-04-28 09:26 21.66093 39.16912 42 ft 4 kts 128°
2026-04-28 09:26 21.66108 39.16893 41 ft 4 kts 153°
2026-04-28 09:26 21.66126 39.16887 40 ft 4 kts 179°
2026-04-28 09:26 21.66146 39.16890 40 ft 4 kts 212°
2026-04-28 09:27 21.66178 39.16920 42 ft 1 kts 226°
2026-04-28 09:27 21.66179 39.16922 42 ft 0 kts 226°
2026-04-28 09:30 21.66177 39.16919 42 ft 2 kts 226°
2026-04-28 09:31 21.66157 39.16897 40 ft 6 kts 226°
2026-04-28 09:31 21.66129 39.16849 44 ft 9 kts 250°
2026-04-28 09:31 21.66143 39.16789 44 ft 8 kts 322°
2026-04-28 09:31 21.66190 39.16755 43 ft 8 kts 314°
2026-04-28 09:32 21.66205 39.16701 43 ft 8 kts 270°
2026-04-28 09:32 21.66189 39.16647 42 ft 8 kts 249°
2026-04-28 09:32 21.66172 39.16596 42 ft 0 kts 249°
2026-04-28 09:33 21.66170 39.16590 42 ft 2 kts 249°
2026-04-28 09:33 21.66163 39.16571 41 ft 4 kts 250°
2026-04-28 09:34 21.66156 39.16550 41 ft 5 kts 250°
2026-04-28 09:34 21.66150 39.16507 40 ft 6 kts 278°
2026-04-28 09:34 21.66174 39.16472 40 ft 6 kts 316°
2026-04-28 09:34 21.66210 39.16451 40 ft 6 kts 338°
2026-04-28 09:35 21.66217 39.16448 40 ft 0 kts 339°
2026-04-28 09:35 21.66250 39.16435 40 ft 25 kts 339°
2026-04-28 09:35 21.66621 39.16284 43 ft 87 kts 339°
2026-04-28 09:35 21.67373 39.15982 41 ft 142 kts 340°
2026-04-28 09:36 21.68412 39.15570 418 ft 156 kts 339°
2026-04-28 09:36 21.69419 39.15130 1045 ft 163 kts 336°
2026-04-28 09:36 21.70485 39.14600 1429 ft 172 kts 335°
2026-04-28 09:36 21.71601 39.14111 1780 ft 176 kts 339°
2026-04-28 09:37 21.72789 39.13623 2045 ft 190 kts 340°
2026-04-28 09:37 21.74067 39.13133 2346 ft 201 kts 340°
2026-04-28 09:37 21.75424 39.12594 2613 ft 214 kts 338°
2026-04-28 09:37 21.76856 39.11987 2837 ft 230 kts 341°
2026-04-28 09:38 21.78422 39.11444 3027 ft 244 kts 343°
2026-04-28 09:38 21.80074 39.10876 3343 ft 252 kts 341°
2026-04-28 09:38 21.81740 39.10263 3630 ft 262 kts 341°
2026-04-28 09:38 21.83504 39.09595 3969 ft 268 kts 340°
2026-04-28 09:39 21.85256 39.08919 4351 ft 274 kts 339°
2026-04-28 09:39 21.87068 39.08210 4710 ft 280 kts 339°
2026-04-28 09:39 21.88909 39.07486 5111 ft 282 kts 338°
2026-04-28 09:39 21.90753 39.06741 5572 ft 283 kts 335°
2026-04-28 09:40 21.92560 39.05883 5915 ft 285 kts 333°
2026-04-28 09:40 21.94368 39.04990 5996 ft 286 kts 333°
2026-04-28 09:40 21.96182 39.04101 6011 ft 287 kts 333°
2026-04-28 09:40 21.97999 39.03224 6004 ft 287 kts 333°
2026-04-28 09:41 21.99825 39.02349 6014 ft 287 kts 333°
2026-04-28 09:41 22.01653 39.01476 6016 ft 286 kts 333°
2026-04-28 09:41 22.03468 39.00610 6195 ft 286 kts 332°
2026-04-28 09:41 22.05292 38.99732 6631 ft 288 kts 332°
2026-04-28 09:42 22.07123 38.98852 7109 ft 288 kts 333°
2026-04-28 09:42 22.08957 38.97974 7588 ft 289 kts 332°
2026-04-28 09:42 22.10799 38.97092 8084 ft 290 kts 332°
2026-04-28 09:42 22.12651 38.96204 8584 ft 292 kts 332°
2026-04-28 09:43 22.14514 38.95311 9072 ft 294 kts 332°
2026-04-28 09:43 22.16391 38.94411 9586 ft 295 kts 332°
2026-04-28 09:43 22.18272 38.93516 10087 ft 297 kts 332°
2026-04-28 09:43 22.20195 38.92596 10350 ft 308 kts 332°
2026-04-28 09:44 22.22197 38.91634 10547 ft 321 kts 332°
2026-04-28 09:44 22.24274 38.90638 10769 ft 333 kts 332°
2026-04-28 09:44 22.26426 38.89608 10978 ft 344 kts 332°
2026-04-28 09:44 22.28649 38.88548 11186 ft 355 kts 332°
2026-04-28 09:45 22.30940 38.87447 11387 ft 365 kts 332°
2026-04-28 09:45 22.33291 38.86317 11580 ft 375 kts 333°
2026-04-28 09:45 22.35709 38.85156 11772 ft 385 kts 333°
2026-04-28 09:45 22.38182 38.83968 11990 ft 392 kts 333°
2026-04-28 09:46 22.40689 38.82765 12303 ft 396 kts 333°
2026-04-28 09:46 22.43218 38.81551 12678 ft 399 kts 333°
2026-04-28 09:46 22.45768 38.80326 13046 ft 402 kts 333°
2026-04-28 09:46 22.48330 38.79094 13416 ft 404 kts 333°
2026-04-28 09:47 22.50908 38.77855 13770 ft 407 kts 333°
2026-04-28 09:47 22.53496 38.76609 14115 ft 408 kts 333°
2026-04-28 09:47 22.56094 38.75358 14468 ft 410 kts 333°
2026-04-28 09:47 22.58705 38.74101 14824 ft 411 kts 333°
2026-04-28 09:48 22.61317 38.72842 15176 ft 413 kts 333°
2026-04-28 09:48 22.63954 38.71571 15524 ft 414 kts 333°
2026-04-28 09:48 22.66596 38.70324 15878 ft 416 kts 334°
2026-04-28 09:48 22.69279 38.69121 16241 ft 418 kts 335°
2026-04-28 09:49 22.71940 38.67958 16585 ft 420 kts 335°
2026-04-28 09:49 22.74657 38.66778 16904 ft 422 kts 335°
2026-04-28 09:49 22.77380 38.65591 17260 ft 423 kts 335°
2026-04-28 09:49 22.80115 38.64391 17607 ft 424 kts 335°
2026-04-28 09:50 22.82852 38.63182 17948 ft 426 kts 335°
2026-04-28 09:50 22.85603 38.61963 18256 ft 428 kts 335°
2026-04-28 09:50 22.88363 38.60736 18538 ft 430 kts 334°
2026-04-28 09:50 22.91134 38.59503 18822 ft 432 kts 334°
2026-04-28 09:51 22.93920 38.58262 19099 ft 433 kts 334°
2026-04-28 09:51 22.96716 38.57017 19417 ft 435 kts 334°
2026-04-28 09:51 22.99519 38.55769 19725 ft 437 kts 334°
2026-04-28 09:51 23.02336 38.54514 20045 ft 438 kts 334°
2026-04-28 09:52 23.05154 38.53258 20359 ft 440 kts 334°
2026-04-28 09:52 23.07999 38.51990 20684 ft 441 kts 334°
2026-04-28 09:52 23.10842 38.50722 21011 ft 443 kts 333°
2026-04-28 09:52 23.13703 38.49445 21337 ft 445 kts 333°
2026-04-28 09:53 23.16568 38.48165 21682 ft 447 kts 333°
2026-04-28 09:53 23.19441 38.46882 22015 ft 448 kts 333°
2026-04-28 09:53 23.22333 38.45590 22350 ft 450 kts 333°
2026-04-28 09:53 23.25235 38.44292 22696 ft 452 kts 333°
2026-04-28 09:54 23.28143 38.42991 23055 ft 453 kts 333°
2026-04-28 09:54 23.31073 38.41680 23392 ft 455 kts 333°
2026-04-28 09:54 23.34003 38.40368 23708 ft 457 kts 332°
2026-04-28 09:54 23.36952 38.39047 24003 ft 458 kts 332°
2026-04-28 09:55 23.39901 38.37725 24300 ft 460 kts 332°
2026-04-28 09:55 23.42863 38.36398 24597 ft 461 kts 332°
2026-04-28 09:55 23.45835 38.35065 24883 ft 463 kts 332°
2026-04-28 09:55 23.48821 38.33724 25165 ft 464 kts 332°
2026-04-28 09:56 23.51811 38.32382 25458 ft 466 kts 332°
2026-04-28 09:56 23.54816 38.31031 25745 ft 468 kts 331°
2026-04-28 09:56 23.57831 38.29676 26020 ft 469 kts 331°
2026-04-28 09:56 23.60847 38.28319 26317 ft 471 kts 331°
2026-04-28 09:57 23.63886 38.26952 26595 ft 472 kts 331°
2026-04-28 09:57 23.66933 38.25581 26870 ft 474 kts 330°
2026-04-28 09:57 23.69982 38.24208 27138 ft 476 kts 330°
2026-04-28 09:57 23.73052 38.22824 27411 ft 477 kts 330°
2026-04-28 09:58 23.76123 38.21438 27668 ft 479 kts 330°
2026-04-28 09:58 23.79212 38.20044 27935 ft 481 kts 330°
2026-04-28 09:58 23.82307 38.18646 28182 ft 482 kts 330°
2026-04-28 09:58 23.85414 38.17242 28427 ft 484 kts 330°
2026-04-28 09:59 23.88517 38.15840 28644 ft 485 kts 329°
2026-04-28 09:59 23.91642 38.14426 28870 ft 486 kts 329°
2026-04-28 09:59 23.94736 38.13027 29108 ft 488 kts 329°
2026-04-28 09:59 23.97875 38.11606 29321 ft 489 kts 329°
2026-04-28 10:00 24.01017 38.10184 29554 ft 490 kts 329°
2026-04-28 10:00 24.04173 38.08755 29868 ft 488 kts 329°
2026-04-28 10:00 24.07298 38.07342 30180 ft 486 kts 329°
2026-04-28 10:00 24.10428 38.05926 30473 ft 484 kts 329°
2026-04-28 10:01 24.13507 38.04469 30726 ft 479 kts 325°
2026-04-28 10:01 24.16383 38.02704 30977 ft 469 kts 319°
2026-04-28 10:01 24.19086 38.00787 31248 ft 466 kts 318°
2026-04-28 10:01 24.21768 37.98818 31503 ft 464 kts 318°
2026-04-28 10:02 24.24427 37.96828 31761 ft 462 kts 317°
2026-04-28 10:02 24.27082 37.94826 32012 ft 460 kts 317°
2026-04-28 10:02 24.29710 37.92839 32262 ft 459 kts 317°
2026-04-28 10:02 24.32332 37.90859 32495 ft 457 kts 317°
2026-04-28 10:03 24.34951 37.88884 32729 ft 456 kts 317°
2026-04-28 10:03 24.37561 37.86918 32948 ft 455 kts 317°
2026-04-28 10:03 24.40168 37.84957 33196 ft 454 kts 317°
2026-04-28 10:03 24.42767 37.83002 33416 ft 452 kts 317°
2026-04-28 10:04 24.45359 37.81052 33639 ft 451 kts 316°
2026-04-28 10:04 24.47935 37.79114 33819 ft 450 kts 316°
2026-04-28 10:04 24.53126 37.75199 33859 ft 454 kts 316°
2026-04-28 10:05 24.58344 37.71259 33868 ft 456 kts 316°
2026-04-28 10:05 24.63574 37.67313 33880 ft 455 kts 316°
2026-04-28 10:06 24.68787 37.63374 33884 ft 455 kts 316°
2026-04-28 10:06 24.74003 37.59427 33889 ft 455 kts 316°
2026-04-28 10:07 24.79213 37.55479 33893 ft 454 kts 316°
2026-04-28 10:07 24.84409 37.51538 33886 ft 454 kts 316°
2026-04-28 10:08 24.89610 37.47589 33891 ft 454 kts 316°
2026-04-28 10:08 24.94769 37.43669 33902 ft 454 kts 316°
2026-04-28 10:09 24.99966 37.39717 33902 ft 454 kts 316°
2026-04-28 10:09 25.05158 37.35765 33908 ft 454 kts 316°
2026-04-28 10:10 25.10349 37.31809 33916 ft 454 kts 316°
2026-04-28 10:10 25.15543 37.27845 33912 ft 454 kts 315°
2026-04-28 10:11 25.20735 37.23879 33911 ft 454 kts 315°
2026-04-28 10:11 25.25922 37.19913 33910 ft 454 kts 315°
2026-04-28 10:12 25.31119 37.15941 33905 ft 454 kts 315°
2026-04-28 10:12 25.36310 37.11960 33903 ft 455 kts 315°
2026-04-28 10:13 25.41518 37.07964 33895 ft 455 kts 315°
2026-04-28 10:13 25.46721 37.03967 33897 ft 456 kts 315°
2026-04-28 10:14 25.51932 36.99955 33896 ft 456 kts 315°
2026-04-28 10:14 25.57127 36.95955 33888 ft 457 kts 315°
2026-04-28 10:15 25.62361 36.91921 33892 ft 457 kts 315°
2026-04-28 10:15 25.67586 36.87891 33893 ft 458 kts 315°
2026-04-28 10:16 25.72811 36.83857 33893 ft 458 kts 315°
2026-04-28 10:16 25.78038 36.79819 33895 ft 458 kts 315°
2026-04-28 10:17 25.83264 36.75771 33898 ft 458 kts 315°
2026-04-28 10:17 25.88494 36.71717 33897 ft 458 kts 315°
2026-04-28 10:18 25.93718 36.67664 33901 ft 458 kts 315°
2026-04-28 10:18 25.98911 36.63631 33905 ft 458 kts 315°
2026-04-28 10:19 26.04178 36.59536 33909 ft 458 kts 315°
2026-04-28 10:19 26.09364 36.55501 33910 ft 458 kts 315°
2026-04-28 10:20 26.14582 36.51434 33919 ft 458 kts 315°
2026-04-28 10:20 26.19454 36.47003 33915 ft 446 kts 307°
2026-04-28 10:21 26.23817 36.42118 33916 ft 445 kts 306°
2026-04-28 10:21 26.28107 36.37156 33918 ft 444 kts 305°
2026-04-28 10:22 26.32383 36.32195 33910 ft 444 kts 306°
2026-04-28 10:22 26.35948 36.28069 33916 ft 444 kts 306°
2026-04-28 10:23 26.40266 36.23079 33905 ft 444 kts 306°
2026-04-28 10:23 26.44529 36.18151 33908 ft 444 kts 306°
2026-04-28 10:24 26.48811 36.13193 33907 ft 444 kts 306°
2026-04-28 10:24 26.53095 36.08227 33914 ft 444 kts 306°
2026-04-28 10:25 26.57375 36.03259 33915 ft 444 kts 306°
2026-04-28 10:25 26.61651 35.98290 33914 ft 443 kts 306°
2026-04-28 10:26 26.65922 35.93320 33918 ft 443 kts 306°
2026-04-28 10:26 26.70194 35.88346 33917 ft 443 kts 306°
2026-04-28 10:27 26.74461 35.83371 33918 ft 443 kts 306°
2026-04-28 10:27 26.78721 35.78399 33923 ft 443 kts 306°
2026-04-28 10:28 26.82988 35.73420 33924 ft 443 kts 306°
2026-04-28 10:29 26.89371 35.65945 33929 ft 442 kts 306°
2026-04-28 10:29 26.93625 35.60957 33926 ft 442 kts 306°
2026-04-28 10:30 26.97872 35.55974 33933 ft 442 kts 306°
2026-04-28 10:30 27.02120 35.50984 33925 ft 442 kts 306°
2026-04-28 10:31 27.06371 35.45985 33925 ft 442 kts 306°
2026-04-28 10:31 27.10616 35.40987 33930 ft 442 kts 306°
2026-04-28 10:32 27.14862 35.35983 33933 ft 442 kts 306°
2026-04-28 10:32 27.19105 35.30975 33938 ft 443 kts 306°
2026-04-28 10:33 27.23346 35.25964 33936 ft 443 kts 306°
2026-04-28 10:33 27.27589 35.20944 33936 ft 443 kts 306°
2026-04-28 10:34 27.31830 35.15922 33935 ft 443 kts 306°
2026-04-28 10:34 27.36045 35.10923 33935 ft 443 kts 306°
2026-04-28 10:35 27.40316 35.05853 33936 ft 443 kts 306°
2026-04-28 10:35 27.44559 35.00810 33933 ft 444 kts 306°
2026-04-28 10:36 27.48777 34.95791 33932 ft 444 kts 306°
2026-04-28 10:36 27.53046 34.90758 33933 ft 446 kts 307°
2026-04-28 10:37 27.57584 34.85957 33932 ft 449 kts 309°
2026-04-28 10:37 27.62211 34.81205 33934 ft 449 kts 309°
2026-04-28 10:38 27.66796 34.76419 33930 ft 449 kts 309°
2026-04-28 10:38 27.71364 34.71589 33933 ft 450 kts 309°
2026-04-28 10:39 27.75918 34.66752 33935 ft 450 kts 309°
2026-04-28 10:39 27.80479 34.61905 33950 ft 450 kts 309°
2026-04-28 10:40 27.85041 34.57054 33953 ft 450 kts 309°
2026-04-28 10:40 27.89602 34.52199 33968 ft 451 kts 309°
2026-04-28 10:41 27.94167 34.47335 33964 ft 451 kts 309°
2026-04-28 10:41 27.98720 34.42472 33968 ft 449 kts 308°
2026-04-28 10:42 28.02804 34.37215 33968 ft 444 kts 303°
2026-04-28 10:42 28.06699 34.31859 33964 ft 443 kts 302°
2026-04-28 10:43 28.10590 34.26448 33961 ft 443 kts 302°
2026-04-28 10:43 28.14486 34.21029 33959 ft 444 kts 303°
2026-04-28 10:44 28.18386 34.15609 33957 ft 444 kts 303°
2026-04-28 10:44 28.22289 34.10189 33970 ft 444 kts 303°
2026-04-28 10:45 28.26196 34.04757 33957 ft 444 kts 303°
2026-04-28 10:45 28.30090 33.99327 33968 ft 444 kts 303°
2026-04-28 10:46 28.34002 33.93878 33965 ft 445 kts 303°
2026-04-28 10:46 28.37914 33.88423 33957 ft 445 kts 303°
2026-04-28 10:47 28.41810 33.82963 33963 ft 446 kts 303°
2026-04-28 10:47 28.45716 33.77485 33963 ft 446 kts 303°
2026-04-28 10:48 28.49633 33.72004 33967 ft 448 kts 303°
2026-04-28 10:48 28.53549 33.66505 33956 ft 447 kts 303°
2026-04-28 10:49 28.57465 33.61008 33965 ft 447 kts 303°
2026-04-28 10:49 28.61387 33.55502 33962 ft 448 kts 303°
2026-04-28 10:50 28.65313 33.49989 33970 ft 448 kts 303°
2026-04-28 10:50 28.69230 33.44463 33968 ft 448 kts 303°
2026-04-28 10:51 28.73142 33.38932 33969 ft 449 kts 303°
2026-04-28 10:51 28.77060 33.33388 33970 ft 449 kts 303°
2026-04-28 10:52 28.80985 33.27829 33975 ft 450 kts 303°
2026-04-28 10:52 28.84885 33.22299 33976 ft 451 kts 303°
2026-04-28 10:53 28.88840 33.16683 33975 ft 451 kts 304°
2026-04-28 10:53 28.92769 33.11096 33976 ft 452 kts 304°
2026-04-28 10:54 28.96701 33.05497 33979 ft 452 kts 304°
2026-04-28 10:54 29.00631 32.99894 33982 ft 452 kts 304°
2026-04-28 10:55 29.04537 32.94317 33984 ft 453 kts 304°
2026-04-28 10:55 29.08468 32.88696 33989 ft 453 kts 304°
2026-04-28 10:56 29.12402 32.83065 33993 ft 453 kts 304°
2026-04-28 10:56 29.16339 32.77421 33999 ft 454 kts 304°
2026-04-28 10:57 29.20273 32.71772 34000 ft 455 kts 304°
2026-04-28 10:57 29.24215 32.66107 34001 ft 455 kts 304°
2026-04-28 10:58 29.28155 32.60436 34006 ft 455 kts 304°
2026-04-28 10:58 29.32087 32.54751 34009 ft 455 kts 304°
2026-04-28 10:59 29.35991 32.49050 34008 ft 455 kts 304°
2026-04-28 10:59 29.39903 32.43332 34017 ft 456 kts 304°
2026-04-28 11:00 29.43813 32.37615 34018 ft 456 kts 304°
2026-04-28 11:00 29.47725 32.31894 34019 ft 456 kts 304°
2026-04-28 11:01 29.51635 32.26167 34022 ft 456 kts 304°
2026-04-28 11:01 29.55549 32.20424 34021 ft 456 kts 304°
2026-04-28 11:02 29.59454 32.14688 34025 ft 456 kts 304°
2026-04-28 11:02 29.63368 32.08933 34024 ft 457 kts 304°
2026-04-28 11:03 29.67278 32.03175 34020 ft 457 kts 304°
2026-04-28 11:03 29.71181 31.97419 34019 ft 457 kts 304°
2026-04-28 11:04 29.75090 31.91644 34028 ft 457 kts 304°
2026-04-28 11:04 29.78997 31.85865 34034 ft 457 kts 304°
2026-04-28 11:05 29.82804 31.80011 34038 ft 457 kts 303°
2026-04-28 11:05 29.86550 31.74099 34039 ft 456 kts 303°
2026-04-28 11:06 29.90299 31.68201 34042 ft 457 kts 303°
2026-04-28 11:06 29.94072 31.62315 34038 ft 457 kts 304°
2026-04-28 11:07 29.97849 31.56486 34026 ft 456 kts 304°
2026-04-28 11:07 30.01646 31.50620 34023 ft 456 kts 304°
2026-04-28 11:08 30.05438 31.44747 34023 ft 456 kts 304°
2026-04-28 11:08 30.09339 31.38963 34023 ft 459 kts 310°
2026-04-28 11:09 30.13154 31.34618 34021 ft 460 kts 313°
2026-04-28 11:09 30.17836 31.29570 34021 ft 461 kts 314°
2026-04-28 11:10 30.22544 31.24543 34021 ft 460 kts 314°
2026-04-28 11:10 30.27235 31.19514 34019 ft 460 kts 314°
2026-04-28 11:11 30.31920 31.14469 34016 ft 460 kts 314°
2026-04-28 11:11 30.36603 31.09415 34013 ft 460 kts 314°
2026-04-28 11:12 30.41250 31.04392 34012 ft 460 kts 314°
2026-04-28 11:12 30.45917 30.99341 34012 ft 460 kts 314°
2026-04-28 11:13 30.50591 30.94279 34015 ft 459 kts 314°
2026-04-28 11:13 30.55258 30.89215 34015 ft 459 kts 314°
2026-04-28 11:14 30.59924 30.84145 34001 ft 459 kts 314°
2026-04-28 11:14 30.64585 30.79073 34020 ft 459 kts 314°
2026-04-28 11:15 30.69241 30.74001 34004 ft 460 kts 314°
2026-04-28 11:15 30.73913 30.68903 34021 ft 460 kts 314°
2026-04-28 11:16 30.78570 30.63816 34023 ft 459 kts 314°
2026-04-28 11:16 30.83228 30.58721 34011 ft 459 kts 314°
2026-04-28 11:17 30.87881 30.53623 34015 ft 459 kts 314°
2026-04-28 11:17 30.92529 30.48524 34015 ft 459 kts 314°
2026-04-28 11:18 30.97176 30.43417 34015 ft 459 kts 314°
2026-04-28 11:18 31.01823 30.38304 34020 ft 459 kts 314°
2026-04-28 11:19 31.06387 30.33104 34028 ft 457 kts 308°
2026-04-28 11:19 31.09866 30.26981 34034 ft 452 kts 293°
2026-04-28 11:20 31.12030 30.20109 34042 ft 452 kts 287°
2026-04-28 11:20 31.13921 30.13106 34047 ft 452 kts 287°
2026-04-28 11:21 31.15784 30.06097 34048 ft 452 kts 287°
2026-04-28 11:21 31.17676 29.99101 34044 ft 452 kts 288°
2026-04-28 11:22 31.20439 29.92516 34054 ft 454 kts 302°
2026-04-28 11:22 31.24068 29.86467 34049 ft 455 kts 304°
2026-04-28 11:23 31.27820 29.80506 34046 ft 455 kts 304°
2026-04-28 11:23 31.31573 29.74543 34047 ft 455 kts 304°
2026-04-28 11:24 31.35299 29.68576 34044 ft 455 kts 304°
2026-04-28 11:24 31.39019 29.62588 34043 ft 455 kts 304°
2026-04-28 11:25 31.42714 29.56629 34043 ft 454 kts 304°
2026-04-28 11:25 31.46423 29.50639 34040 ft 454 kts 304°
2026-04-28 11:26 31.50126 29.44652 34042 ft 454 kts 304°
2026-04-28 11:26 31.53829 29.38655 34041 ft 454 kts 304°
2026-04-28 11:27 31.57526 29.32659 34045 ft 454 kts 304°
2026-04-28 11:27 31.61216 29.26661 34042 ft 454 kts 304°
2026-04-28 11:28 31.64903 29.20643 34041 ft 453 kts 304°
2026-04-28 11:28 31.68574 29.14638 34038 ft 453 kts 304°